Year,Month,Day,Hour,Minute,Value (Times are PST for temperature in C)
2010,03,06,00,00,3.60
2010,03,06,00,01,3.60
2010,03,06,00,02,3.60
2010,03,06,00,03,3.60
2010,03,06,00,04,3.60
2010,03,06,00,05,3.60
2010,03,06,00,06,3.60
2010,03,06,00,07,3.60
2010,03,06,00,08,3.60
2010,03,06,00,09,3.60
2010,03,06,00,10,3.60
2010,03,06,00,11,3.60
2010,03,06,00,12,3.60
2010,03,06,00,13,3.60
2010,03,06,00,14,3.60
2010,03,06,00,15,3.60
2010,03,06,00,16,3.60
2010,03,06,00,17,3.60
2010,03,06,00,18,3.60
2010,03,06,00,19,3.60
2010,03,06,00,20,3.60
2010,03,06,00,21,3.60
2010,03,06,00,22,3.60
2010,03,06,00,23,3.50
2010,03,06,00,24,3.50
2010,03,06,00,25,3.50
2010,03,06,00,26,3.50
2010,03,06,00,27,3.50
2010,03,06,00,28,3.40
2010,03,06,00,29,3.40
2010,03,06,00,30,3.40
2010,03,06,00,31,3.40
2010,03,06,00,32,3.40
2010,03,06,00,33,3.40
2010,03,06,00,34,3.40
2010,03,06,00,35,3.30
2010,03,06,00,36,3.30
2010,03,06,00,37,3.30
2010,03,06,00,38,3.30
2010,03,06,00,39,3.30
2010,03,06,00,40,3.30
2010,03,06,00,41,3.30
2010,03,06,00,42,3.30
2010,03,06,00,43,3.30
2010,03,06,00,44,3.30
2010,03,06,00,45,3.30
2010,03,06,00,46,3.30
2010,03,06,00,47,3.30
2010,03,06,00,48,3.30
2010,03,06,00,49,3.20
2010,03,06,00,50,3.20
2010,03,06,00,51,3.20
2010,03,06,00,52,3.20
2010,03,06,00,53,3.20
2010,03,06,00,54,3.20
2010,03,06,00,55,3.20
2010,03,06,00,56,3.20
2010,03,06,00,57,3.20
2010,03,06,00,58,3.20
2010,03,06,00,59,3.20
2010,03,06,01,00,3.10
2010,03,06,01,01,3.10
2010,03,06,01,02,3.10
2010,03,06,01,03,3.10
2010,03,06,01,04,3.10
2010,03,06,01,05,3.10
2010,03,06,01,06,3.10
2010,03,06,01,07,3.10
2010,03,06,01,08,3.10
2010,03,06,01,09,3.10
2010,03,06,01,10,3.10
2010,03,06,01,11,3.00
2010,03,06,01,12,3.00
2010,03,06,01,13,3.00
2010,03,06,01,14,3.00
2010,03,06,01,15,3.00
2010,03,06,01,16,3.00
2010,03,06,01,17,3.00
2010,03,06,01,18,3.00
2010,03,06,01,19,3.00
2010,03,06,01,20,3.00
2010,03,06,01,21,3.00
2010,03,06,01,22,2.90
2010,03,06,01,23,2.90
2010,03,06,01,24,2.90
2010,03,06,01,25,2.90
2010,03,06,01,26,2.90
2010,03,06,01,27,2.80
2010,03,06,01,28,2.80
2010,03,06,01,29,2.80
2010,03,06,01,30,2.80
2010,03,06,01,31,2.80
2010,03,06,01,32,2.80
2010,03,06,01,33,2.80
2010,03,06,01,34,2.80
2010,03,06,01,35,2.80
2010,03,06,01,36,2.80
2010,03,06,01,37,2.80
2010,03,06,01,38,2.80
2010,03,06,01,39,2.80
2010,03,06,01,40,2.80
2010,03,06,01,41,2.80
2010,03,06,01,42,2.80
2010,03,06,01,43,2.80
2010,03,06,01,44,2.70
2010,03,06,01,45,2.70
2010,03,06,01,46,2.70
2010,03,06,01,47,2.70
2010,03,06,01,48,2.70
2010,03,06,01,49,2.70
2010,03,06,01,50,2.70
2010,03,06,01,51,2.70
2010,03,06,01,52,2.70
2010,03,06,01,53,2.70
2010,03,06,01,54,2.70
2010,03,06,01,55,2.70
2010,03,06,01,56,2.70
2010,03,06,01,57,2.70
2010,03,06,01,58,2.70
2010,03,06,01,59,2.70
2010,03,06,02,00,2.70
2010,03,06,02,01,2.70
2010,03,06,02,02,2.70
2010,03,06,02,03,2.70
2010,03,06,02,04,2.60
2010,03,06,02,05,2.60
2010,03,06,02,06,2.60
2010,03,06,02,07,2.60
2010,03,06,02,08,2.60
2010,03,06,02,09,2.60
2010,03,06,02,10,2.60
2010,03,06,02,11,2.60
2010,03,06,02,12,2.60
2010,03,06,02,13,2.60
2010,03,06,02,14,2.60
2010,03,06,02,15,2.60
2010,03,06,02,16,2.60
2010,03,06,02,17,2.60
2010,03,06,02,18,2.60
2010,03,06,02,19,2.60
2010,03,06,02,20,2.60
2010,03,06,02,21,2.60
2010,03,06,02,22,2.60
2010,03,06,02,23,2.60
2010,03,06,02,24,2.60
2010,03,06,02,25,2.60
2010,03,06,02,26,2.60
2010,03,06,02,27,2.60
2010,03,06,02,28,2.60
2010,03,06,02,29,2.60
2010,03,06,02,30,2.60
2010,03,06,02,31,2.60
2010,03,06,02,32,2.60
2010,03,06,02,33,2.60
2010,03,06,02,34,2.60
2010,03,06,02,35,2.60
2010,03,06,02,36,2.60
2010,03,06,02,37,2.60
2010,03,06,02,38,2.50
2010,03,06,02,39,2.50
2010,03,06,02,40,2.50
2010,03,06,02,41,2.50
2010,03,06,02,42,2.40
2010,03,06,02,43,2.40
2010,03,06,02,44,2.40
2010,03,06,02,45,2.40
2010,03,06,02,46,2.40
2010,03,06,02,47,2.40
2010,03,06,02,48,2.30
2010,03,06,02,49,2.40
2010,03,06,02,50,2.40
2010,03,06,02,51,2.40
2010,03,06,02,52,2.40
2010,03,06,02,53,2.40
2010,03,06,02,54,2.40
2010,03,06,02,55,2.40
2010,03,06,02,56,2.40
2010,03,06,02,57,2.40
2010,03,06,02,58,2.40
2010,03,06,02,59,2.40
2010,03,06,03,00,2.40
2010,03,06,03,01,2.40
2010,03,06,03,02,2.40
2010,03,06,03,03,2.40
2010,03,06,03,04,2.40
2010,03,06,03,05,2.40
2010,03,06,03,06,2.40
2010,03,06,03,07,2.40
2010,03,06,03,08,2.40
2010,03,06,03,09,2.30
2010,03,06,03,10,2.30
2010,03,06,03,11,2.30
2010,03,06,03,12,2.30
2010,03,06,03,13,2.30
2010,03,06,03,14,2.30
2010,03,06,03,15,2.20
2010,03,06,03,16,2.20
2010,03,06,03,17,2.20
2010,03,06,03,18,2.20
2010,03,06,03,19,2.20
2010,03,06,03,20,2.20
2010,03,06,03,21,2.20
2010,03,06,03,22,2.20
2010,03,06,03,23,2.20
2010,03,06,03,24,2.20
2010,03,06,03,25,2.20
2010,03,06,03,26,2.20
2010,03,06,03,27,2.20
2010,03,06,03,28,2.20
2010,03,06,03,29,2.20
2010,03,06,03,30,2.20
2010,03,06,03,31,2.20
2010,03,06,03,32,2.20
2010,03,06,03,33,2.20
2010,03,06,03,34,2.20
2010,03,06,03,35,2.20
2010,03,06,03,36,2.20
2010,03,06,03,37,2.20
2010,03,06,03,38,2.20
2010,03,06,03,39,2.20
2010,03,06,03,40,2.20
2010,03,06,03,41,2.20
2010,03,06,03,42,2.20
2010,03,06,03,43,2.20
2010,03,06,03,44,2.10
2010,03,06,03,45,2.10
2010,03,06,03,46,2.10
2010,03,06,03,47,2.10
2010,03,06,03,48,2.10
2010,03,06,03,49,2.10
2010,03,06,03,50,2.10
2010,03,06,03,51,2.10
2010,03,06,03,52,2.00
2010,03,06,03,53,2.00
2010,03,06,03,54,2.00
2010,03,06,03,55,2.00
2010,03,06,03,56,2.00
2010,03,06,03,57,2.00
2010,03,06,03,58,2.00
2010,03,06,03,59,2.00
2010,03,06,04,00,2.00
2010,03,06,04,01,2.00
2010,03,06,04,02,2.00
2010,03,06,04,03,2.00
2010,03,06,04,04,2.00
2010,03,06,04,05,2.00
2010,03,06,04,06,2.00
2010,03,06,04,07,2.00
2010,03,06,04,08,2.10
2010,03,06,04,09,2.10
2010,03,06,04,10,2.10
2010,03,06,04,11,2.10
2010,03,06,04,12,2.10
2010,03,06,04,13,2.10
2010,03,06,04,14,2.10
2010,03,06,04,15,2.00
2010,03,06,04,16,2.00
2010,03,06,04,17,2.00
2010,03,06,04,18,2.00
2010,03,06,04,19,2.00
2010,03,06,04,20,2.00
2010,03,06,04,21,2.00
2010,03,06,04,22,2.00
2010,03,06,04,23,2.00
2010,03,06,04,24,2.00
2010,03,06,04,25,2.00
2010,03,06,04,26,1.90
2010,03,06,04,27,1.90
2010,03,06,04,28,1.90
2010,03,06,04,29,1.90
2010,03,06,04,30,1.90
2010,03,06,04,31,1.90
2010,03,06,04,32,1.90
2010,03,06,04,33,1.90
2010,03,06,04,34,1.90
2010,03,06,04,35,1.90
2010,03,06,04,36,1.80
2010,03,06,04,37,1.80
2010,03,06,04,38,1.80
2010,03,06,04,39,1.80
2010,03,06,04,40,1.80
2010,03,06,04,41,1.80
2010,03,06,04,42,1.80
2010,03,06,04,43,1.80
2010,03,06,04,44,1.80
2010,03,06,04,45,1.80
2010,03,06,04,46,1.80
2010,03,06,04,47,1.80
2010,03,06,04,48,1.80
2010,03,06,04,49,1.80
2010,03,06,04,50,1.80
2010,03,06,04,51,1.80
2010,03,06,04,52,1.80
2010,03,06,04,53,1.80
2010,03,06,04,54,1.90
2010,03,06,04,55,1.80
2010,03,06,04,56,1.90
2010,03,06,04,57,1.90
2010,03,06,04,58,1.90
2010,03,06,04,59,1.90
2010,03,06,05,00,1.90
2010,03,06,05,01,1.90
2010,03,06,05,02,1.90
2010,03,06,05,03,1.90
2010,03,06,05,04,2.00
2010,03,06,05,05,2.00
2010,03,06,05,06,2.10
2010,03,06,05,07,2.10
2010,03,06,05,08,2.10
2010,03,06,05,09,2.10
2010,03,06,05,10,2.10
2010,03,06,05,11,2.20
2010,03,06,05,12,2.20
2010,03,06,05,13,2.20
2010,03,06,05,14,2.20
2010,03,06,05,15,2.20
2010,03,06,05,16,2.20
2010,03,06,05,17,2.20
2010,03,06,05,18,2.20
2010,03,06,05,19,2.20
2010,03,06,05,20,2.30
2010,03,06,05,21,2.30
2010,03,06,05,22,2.40
2010,03,06,05,23,2.40
2010,03,06,05,24,2.50
2010,03,06,05,25,2.60
2010,03,06,05,26,2.60
2010,03,06,05,27,2.70
2010,03,06,05,28,2.70
2010,03,06,05,29,2.70
2010,03,06,05,30,2.70
2010,03,06,05,31,2.80
2010,03,06,05,32,2.80
2010,03,06,05,33,2.90
2010,03,06,05,34,2.90
2010,03,06,05,35,2.90
2010,03,06,05,36,3.00
2010,03,06,05,37,3.00
2010,03,06,05,38,3.10
2010,03,06,05,39,3.10
2010,03,06,05,40,3.10
2010,03,06,05,41,3.10
2010,03,06,05,42,3.20
2010,03,06,05,43,3.20
2010,03,06,05,44,3.20
2010,03,06,05,45,3.20
2010,03,06,05,46,3.20
2010,03,06,05,47,3.20
2010,03,06,05,48,3.30
2010,03,06,05,49,3.30
2010,03,06,05,50,3.30
2010,03,06,05,51,3.30
2010,03,06,05,52,3.20
2010,03,06,05,53,3.20
2010,03,06,05,54,3.20
2010,03,06,05,55,3.20
2010,03,06,05,56,3.10
2010,03,06,05,57,3.10
2010,03,06,05,58,3.10
2010,03,06,05,59,3.10
2010,03,06,06,00,3.10
2010,03,06,06,01,3.00
2010,03,06,06,02,3.00
2010,03,06,06,03,2.90
2010,03,06,06,04,2.90
2010,03,06,06,05,2.90
2010,03,06,06,06,2.90
2010,03,06,06,07,2.90
2010,03,06,06,08,2.90
2010,03,06,06,09,2.90
2010,03,06,06,10,2.90
2010,03,06,06,11,2.90
2010,03,06,06,12,2.90
2010,03,06,06,13,2.90
2010,03,06,06,14,2.90
2010,03,06,06,15,2.80
2010,03,06,06,16,2.80
2010,03,06,06,17,2.80
2010,03,06,06,18,2.80
2010,03,06,06,19,2.80
2010,03,06,06,20,2.80
2010,03,06,06,21,2.80
2010,03,06,06,22,2.80
2010,03,06,06,23,2.80
2010,03,06,06,24,2.80
2010,03,06,06,25,2.80
2010,03,06,06,26,2.80
2010,03,06,06,27,2.80
2010,03,06,06,28,2.80
2010,03,06,06,29,2.80
2010,03,06,06,30,2.80
2010,03,06,06,31,2.90
2010,03,06,06,32,2.90
2010,03,06,06,33,3.00
2010,03,06,06,34,3.00
2010,03,06,06,35,3.10
2010,03,06,06,36,3.10
2010,03,06,06,37,3.20
2010,03,06,06,38,3.30
2010,03,06,06,39,3.30
2010,03,06,06,40,3.40
2010,03,06,06,41,3.60
2010,03,06,06,42,3.70
2010,03,06,06,43,3.80
2010,03,06,06,44,3.80
2010,03,06,06,45,3.90
2010,03,06,06,46,3.90
2010,03,06,06,47,4.00
2010,03,06,06,48,4.10
2010,03,06,06,49,4.10
2010,03,06,06,50,4.10
2010,03,06,06,51,4.20
2010,03,06,06,52,4.20
2010,03,06,06,53,4.30
2010,03,06,06,54,4.30
2010,03,06,06,55,4.40
2010,03,06,06,56,4.40
2010,03,06,06,57,4.50
2010,03,06,06,58,4.60
2010,03,06,06,59,4.60
2010,03,06,07,00,4.60
2010,03,06,07,01,4.70
2010,03,06,07,02,4.70
2010,03,06,07,03,4.80
2010,03,06,07,04,4.80
2010,03,06,07,05,4.80
2010,03,06,07,06,4.80
2010,03,06,07,07,4.90
2010,03,06,07,08,4.90
2010,03,06,07,09,4.90
2010,03,06,07,10,4.90
2010,03,06,07,11,4.90
2010,03,06,07,12,4.90
2010,03,06,07,13,4.90
2010,03,06,07,14,4.90
2010,03,06,07,15,4.90
2010,03,06,07,16,4.80
2010,03,06,07,17,4.80
2010,03,06,07,18,4.80
2010,03,06,07,19,4.70
2010,03,06,07,20,4.60
2010,03,06,07,21,4.50
2010,03,06,07,22,4.50
2010,03,06,07,23,4.40
2010,03,06,07,24,4.30
2010,03,06,07,25,4.30
2010,03,06,07,26,4.20
2010,03,06,07,27,4.20
2010,03,06,07,28,4.20
2010,03,06,07,29,4.10
2010,03,06,07,30,4.10
2010,03,06,07,31,4.10
2010,03,06,07,32,4.10
2010,03,06,07,33,4.10
2010,03,06,07,34,4.10
2010,03,06,07,35,4.10
2010,03,06,07,36,4.10
2010,03,06,07,37,4.10
2010,03,06,07,38,4.10
2010,03,06,07,39,4.10
2010,03,06,07,40,4.10
2010,03,06,07,41,4.10
2010,03,06,07,42,4.20
2010,03,06,07,43,4.20
2010,03,06,07,44,4.20
2010,03,06,07,45,4.20
2010,03,06,07,46,4.20
2010,03,06,07,47,4.20
2010,03,06,07,48,4.20
2010,03,06,07,49,4.20
2010,03,06,07,50,4.20
2010,03,06,07,51,4.30
2010,03,06,07,52,4.30
2010,03,06,07,53,4.30
2010,03,06,07,54,4.30
2010,03,06,07,55,4.40
2010,03,06,07,56,4.40
2010,03,06,07,57,4.40
2010,03,06,07,58,4.40
2010,03,06,07,59,4.40
2010,03,06,08,00,4.50
2010,03,06,08,01,4.50
2010,03,06,08,02,4.60
2010,03,06,08,03,4.60
2010,03,06,08,04,4.60
2010,03,06,08,05,4.60
2010,03,06,08,06,4.60
2010,03,06,08,07,4.60
2010,03,06,08,08,4.70
2010,03,06,08,09,4.70
2010,03,06,08,10,4.70
2010,03,06,08,11,4.70
2010,03,06,08,12,4.70
2010,03,06,08,13,4.80
2010,03,06,08,14,4.80
2010,03,06,08,15,4.90
2010,03,06,08,16,5.00
2010,03,06,08,17,5.00
2010,03,06,08,18,5.10
2010,03,06,08,19,5.10
2010,03,06,08,20,5.20
2010,03,06,08,21,5.20
2010,03,06,08,22,5.30
2010,03,06,08,23,5.40
2010,03,06,08,24,5.50
2010,03,06,08,25,5.60
2010,03,06,08,26,5.70
2010,03,06,08,27,5.70
2010,03,06,08,28,5.80
2010,03,06,08,29,5.80
2010,03,06,08,30,5.90
2010,03,06,08,31,6.10
2010,03,06,08,32,6.20
2010,03,06,08,33,6.30
2010,03,06,08,34,6.40
2010,03,06,08,35,6.50
2010,03,06,08,36,6.60
2010,03,06,08,37,6.70
2010,03,06,08,38,6.80
2010,03,06,08,39,6.90
2010,03,06,08,40,7.00
2010,03,06,08,41,7.10
2010,03,06,08,42,7.10
2010,03,06,08,43,7.20
2010,03,06,08,44,7.20
2010,03,06,08,45,7.30
2010,03,06,08,46,7.30
2010,03,06,08,47,7.40
2010,03,06,08,48,7.50
2010,03,06,08,49,7.60
2010,03,06,08,50,7.70
2010,03,06,08,51,7.70
2010,03,06,08,52,7.80
2010,03,06,08,53,7.90
2010,03,06,08,54,7.90
2010,03,06,08,55,8.00
2010,03,06,08,56,8.00
2010,03,06,08,57,8.10
2010,03,06,08,58,8.20
2010,03,06,08,59,8.20
2010,03,06,09,00,8.30
2010,03,06,09,01,8.40
2010,03,06,09,02,8.40
2010,03,06,09,03,8.50
2010,03,06,09,04,8.60
2010,03,06,09,05,8.60
2010,03,06,09,06,8.70
2010,03,06,09,07,8.70
2010,03,06,09,08,8.70
2010,03,06,09,09,8.80
2010,03,06,09,10,8.80
2010,03,06,09,11,8.90
2010,03,06,09,12,8.90
2010,03,06,09,13,8.90
2010,03,06,09,14,9.00
2010,03,06,09,15,9.10
2010,03,06,09,16,9.10
2010,03,06,09,17,9.20
2010,03,06,09,18,9.20
2010,03,06,09,19,9.30
2010,03,06,09,20,9.30
2010,03,06,09,21,9.30
2010,03,06,09,22,9.40
2010,03,06,09,23,9.50
2010,03,06,09,24,9.50
2010,03,06,09,25,9.60
2010,03,06,09,26,9.60
2010,03,06,09,27,9.70
2010,03,06,09,28,9.70
2010,03,06,09,29,9.70
2010,03,06,09,30,9.70
2010,03,06,09,31,9.70
2010,03,06,09,32,9.70
2010,03,06,09,33,9.60
2010,03,06,09,34,9.60
2010,03,06,09,35,9.60
2010,03,06,09,36,9.60
2010,03,06,09,37,9.60
2010,03,06,09,38,9.60
2010,03,06,09,39,9.60
2010,03,06,09,40,9.60
2010,03,06,09,41,9.60
2010,03,06,09,42,9.60
2010,03,06,09,43,9.60
2010,03,06,09,44,9.60
2010,03,06,09,45,9.70
2010,03,06,09,46,9.70
2010,03,06,09,47,9.70
2010,03,06,09,48,9.70
2010,03,06,09,49,9.80
2010,03,06,09,50,9.80
2010,03,06,09,51,9.80
2010,03,06,09,52,9.90
2010,03,06,09,53,9.90
2010,03,06,09,54,9.90
2010,03,06,09,55,9.90
2010,03,06,09,56,9.80
2010,03,06,09,57,9.80
2010,03,06,09,58,9.80
2010,03,06,09,59,9.70
2010,03,06,10,00,9.70
2010,03,06,10,01,9.70
2010,03,06,10,02,9.80
2010,03,06,10,03,9.80
2010,03,06,10,04,9.80
2010,03,06,10,05,9.80
2010,03,06,10,06,9.90
2010,03,06,10,07,9.90
2010,03,06,10,08,9.90
2010,03,06,10,09,9.90
2010,03,06,10,10,10.00
2010,03,06,10,11,10.00
2010,03,06,10,12,10.10
2010,03,06,10,13,10.10
2010,03,06,10,14,10.20
2010,03,06,10,15,10.20
2010,03,06,10,16,10.20
2010,03,06,10,17,10.30
2010,03,06,10,18,10.30
2010,03,06,10,19,10.30
2010,03,06,10,20,10.40
2010,03,06,10,21,10.40
2010,03,06,10,22,10.40
2010,03,06,10,23,10.40
2010,03,06,10,24,10.40
2010,03,06,10,25,10.40
2010,03,06,10,26,10.50
2010,03,06,10,27,10.50
2010,03,06,10,28,10.60
2010,03,06,10,29,10.60
2010,03,06,10,30,10.70
2010,03,06,10,31,10.70
2010,03,06,10,32,10.70
2010,03,06,10,33,10.80
2010,03,06,10,34,10.70
2010,03,06,10,35,10.70
2010,03,06,10,36,10.60
2010,03,06,10,37,10.60
2010,03,06,10,38,10.60
2010,03,06,10,39,10.60
2010,03,06,10,40,10.60
2010,03,06,10,41,10.70
2010,03,06,10,42,10.70
2010,03,06,10,43,10.80
2010,03,06,10,44,10.80
2010,03,06,10,45,10.90
2010,03,06,10,46,10.90
2010,03,06,10,47,11.00
2010,03,06,10,48,11.10
2010,03,06,10,49,11.10
2010,03,06,10,50,11.20
2010,03,06,10,51,11.20
2010,03,06,10,52,11.30
2010,03,06,10,53,11.40
2010,03,06,10,54,11.50
2010,03,06,10,55,11.50
2010,03,06,10,56,11.60
2010,03,06,10,57,11.70
2010,03,06,10,58,11.70
2010,03,06,10,59,11.70
2010,03,06,11,00,11.70
2010,03,06,11,01,11.70
2010,03,06,11,02,11.70
2010,03,06,11,03,11.70
2010,03,06,11,04,11.70
2010,03,06,11,05,11.80
2010,03,06,11,06,11.90
2010,03,06,11,07,11.90
2010,03,06,11,08,12.00
2010,03,06,11,09,12.10
2010,03,06,11,10,12.20
2010,03,06,11,11,12.20
2010,03,06,11,12,12.20
2010,03,06,11,13,12.20
2010,03,06,11,14,12.20
2010,03,06,11,15,12.20
2010,03,06,11,16,12.20
2010,03,06,11,17,12.20
2010,03,06,11,18,12.20
2010,03,06,11,19,12.20
2010,03,06,11,20,12.20
2010,03,06,11,21,12.30
2010,03,06,11,22,12.30
2010,03,06,11,23,12.30
2010,03,06,11,24,12.30
2010,03,06,11,25,12.30
2010,03,06,11,26,12.30
2010,03,06,11,27,12.30
2010,03,06,11,28,12.30
2010,03,06,11,29,12.20
2010,03,06,11,30,12.20
2010,03,06,11,31,12.20
2010,03,06,11,32,12.20
2010,03,06,11,33,12.20
2010,03,06,11,34,12.20
2010,03,06,11,35,12.30
2010,03,06,11,36,12.30
2010,03,06,11,37,12.40
2010,03,06,11,38,12.50
2010,03,06,11,39,12.50
2010,03,06,11,40,12.50
2010,03,06,11,41,12.40
2010,03,06,11,42,12.50
2010,03,06,11,43,12.50
2010,03,06,11,44,12.40
2010,03,06,11,45,12.40
2010,03,06,11,46,12.40
2010,03,06,11,47,12.50
2010,03,06,11,48,12.60
2010,03,06,11,49,12.60
2010,03,06,11,50,12.60
2010,03,06,11,51,12.70
2010,03,06,11,52,12.70
2010,03,06,11,53,12.70
2010,03,06,11,54,12.70
2010,03,06,11,55,12.70
2010,03,06,11,56,12.70
2010,03,06,11,57,12.70
2010,03,06,11,58,12.70
2010,03,06,11,59,12.70
2010,03,06,12,00,12.70
2010,03,06,12,01,12.70
2010,03,06,12,02,12.70
2010,03,06,12,03,12.70
2010,03,06,12,04,12.70
2010,03,06,12,05,12.70
2010,03,06,12,06,12.70
2010,03,06,12,07,12.80
2010,03,06,12,08,12.80
2010,03,06,12,09,12.80
2010,03,06,12,10,12.80
2010,03,06,12,11,12.80
2010,03,06,12,12,12.80
2010,03,06,12,13,12.80
2010,03,06,12,14,12.80
2010,03,06,12,15,12.90
2010,03,06,12,16,12.90
2010,03,06,12,17,13.00
2010,03,06,12,18,13.00
2010,03,06,12,19,13.00
2010,03,06,12,20,13.00
2010,03,06,12,21,13.00
2010,03,06,12,22,12.90
2010,03,06,12,23,12.80
2010,03,06,12,24,12.90
2010,03,06,12,25,12.90
2010,03,06,12,26,12.90
2010,03,06,12,27,13.00
2010,03,06,12,28,13.00
2010,03,06,12,29,13.10
2010,03,06,12,30,13.20
2010,03,06,12,31,13.30
2010,03,06,12,32,13.20
2010,03,06,12,33,13.30
2010,03,06,12,34,13.30
2010,03,06,12,35,13.30
2010,03,06,12,36,13.30
2010,03,06,12,37,13.30
2010,03,06,12,38,13.30
2010,03,06,12,39,13.30
2010,03,06,12,40,13.40
2010,03,06,12,41,13.40
2010,03,06,12,42,13.40
2010,03,06,12,43,13.40
2010,03,06,12,44,13.40
2010,03,06,12,45,13.40
2010,03,06,12,46,13.30
2010,03,06,12,47,13.30
2010,03,06,12,48,13.30
2010,03,06,12,49,13.40
2010,03,06,12,50,13.40
2010,03,06,12,51,13.40
2010,03,06,12,52,13.40
2010,03,06,12,53,13.40
2010,03,06,12,54,13.50
2010,03,06,12,55,13.60
2010,03,06,12,56,13.60
2010,03,06,12,57,13.60
2010,03,06,12,58,13.50
2010,03,06,12,59,13.40
2010,03,06,13,00,13.30
2010,03,06,13,01,13.30
2010,03,06,13,02,13.30
2010,03,06,13,03,13.40
2010,03,06,13,04,13.40
2010,03,06,13,05,13.50
2010,03,06,13,06,13.60
2010,03,06,13,07,13.60
2010,03,06,13,08,13.50
2010,03,06,13,09,13.50
2010,03,06,13,10,13.50
2010,03,06,13,11,13.40
2010,03,06,13,12,13.40
2010,03,06,13,13,13.30
2010,03,06,13,14,13.20
2010,03,06,13,15,13.20
2010,03,06,13,16,13.20
2010,03,06,13,17,13.20
2010,03,06,13,18,13.20
2010,03,06,13,19,13.20
2010,03,06,13,20,13.10
2010,03,06,13,21,13.20
2010,03,06,13,22,13.20
2010,03,06,13,23,13.30
2010,03,06,13,24,13.30
2010,03,06,13,25,13.30
2010,03,06,13,26,13.20
2010,03,06,13,27,13.10
2010,03,06,13,28,13.10
2010,03,06,13,29,13.10
2010,03,06,13,30,13.10
2010,03,06,13,31,13.20
2010,03,06,13,32,13.20
2010,03,06,13,33,13.20
2010,03,06,13,34,13.20
2010,03,06,13,35,13.30
2010,03,06,13,36,13.40
2010,03,06,13,37,13.40
2010,03,06,13,38,13.40
2010,03,06,13,39,13.50
2010,03,06,13,40,13.50
2010,03,06,13,41,13.50
2010,03,06,13,42,13.50
2010,03,06,13,43,13.50
2010,03,06,13,44,13.50
2010,03,06,13,45,13.50
2010,03,06,13,46,13.50
2010,03,06,13,47,13.50
2010,03,06,13,48,13.60
2010,03,06,13,49,13.60
2010,03,06,13,50,13.60
2010,03,06,13,51,13.70
2010,03,06,13,52,13.70
2010,03,06,13,53,13.70
2010,03,06,13,54,13.60
2010,03,06,13,55,13.60
2010,03,06,13,56,13.60
2010,03,06,13,57,13.60
2010,03,06,13,58,13.50
2010,03,06,13,59,13.50
2010,03,06,14,00,13.40
2010,03,06,14,01,13.40
2010,03,06,14,02,13.40
2010,03,06,14,03,13.40
2010,03,06,14,04,13.40
2010,03,06,14,05,13.30
2010,03,06,14,06,13.30
2010,03,06,14,07,13.30
2010,03,06,14,08,13.20
2010,03,06,14,09,13.20
2010,03,06,14,10,13.20
2010,03,06,14,11,13.20
2010,03,06,14,12,13.20
2010,03,06,14,13,13.20
2010,03,06,14,14,13.30
2010,03,06,14,15,13.30
2010,03,06,14,16,13.30
2010,03,06,14,17,13.30
2010,03,06,14,18,13.30
2010,03,06,14,19,13.30
2010,03,06,14,20,13.30
2010,03,06,14,21,13.30
2010,03,06,14,22,13.20
2010,03,06,14,23,13.20
2010,03,06,14,24,13.20
2010,03,06,14,25,13.30
2010,03,06,14,26,13.30
2010,03,06,14,27,13.20
2010,03,06,14,28,13.20
2010,03,06,14,29,13.10
2010,03,06,14,30,13.10
2010,03,06,14,31,13.10
2010,03,06,14,32,13.20
2010,03,06,14,33,13.20
2010,03,06,14,34,13.20
2010,03,06,14,35,13.20
2010,03,06,14,36,13.20
2010,03,06,14,37,13.10
2010,03,06,14,38,13.00
2010,03,06,14,39,12.90
2010,03,06,14,40,12.90
2010,03,06,14,41,13.00
2010,03,06,14,42,13.00
2010,03,06,14,43,13.10
2010,03,06,14,44,13.10
2010,03,06,14,45,13.10
2010,03,06,14,46,13.20
2010,03,06,14,47,13.10
2010,03,06,14,48,13.10
2010,03,06,14,49,13.10
2010,03,06,14,50,13.10
2010,03,06,14,51,13.10
2010,03,06,14,52,13.20
2010,03,06,14,53,13.20
2010,03,06,14,54,13.40
2010,03,06,14,55,13.40
2010,03,06,14,56,13.40
2010,03,06,14,57,13.40
2010,03,06,14,58,13.50
2010,03,06,14,59,13.50
2010,03,06,15,00,13.50
2010,03,06,15,01,13.50
2010,03,06,15,02,13.50
2010,03,06,15,03,13.50
2010,03,06,15,04,13.50
2010,03,06,15,05,13.40
2010,03,06,15,06,13.40
2010,03,06,15,07,13.40
2010,03,06,15,08,13.40
2010,03,06,15,09,13.40
2010,03,06,15,10,13.40
2010,03,06,15,11,13.30
2010,03,06,15,12,13.30
2010,03,06,15,13,13.20
2010,03,06,15,14,13.20
2010,03,06,15,15,13.30
2010,03,06,15,16,13.30
2010,03,06,15,17,13.30
2010,03,06,15,18,13.30
2010,03,06,15,19,13.30
2010,03,06,15,20,13.30
2010,03,06,15,21,13.30
2010,03,06,15,22,13.30
2010,03,06,15,23,13.30
2010,03,06,15,24,13.30
2010,03,06,15,25,13.30
2010,03,06,15,26,13.20
2010,03,06,15,27,13.20
2010,03,06,15,28,13.20
2010,03,06,15,29,13.10
2010,03,06,15,30,13.10
2010,03,06,15,31,13.10
2010,03,06,15,32,13.10
2010,03,06,15,33,13.20
2010,03,06,15,34,13.20
2010,03,06,15,35,13.20
2010,03,06,15,36,13.30
2010,03,06,15,37,13.40
2010,03,06,15,38,13.40
2010,03,06,15,39,13.40
2010,03,06,15,40,13.50
2010,03,06,15,41,13.50
2010,03,06,15,42,13.50
2010,03,06,15,43,13.50
2010,03,06,15,44,13.50
2010,03,06,15,45,13.50
2010,03,06,15,46,13.50
2010,03,06,15,47,13.40
2010,03,06,15,48,13.40
2010,03,06,15,49,13.40
2010,03,06,15,50,13.30
2010,03,06,15,51,13.30
2010,03,06,15,52,13.20
2010,03,06,15,53,13.20
2010,03,06,15,54,13.20
2010,03,06,15,55,13.20
2010,03,06,15,56,13.30
2010,03,06,15,57,13.30
2010,03,06,15,58,13.30
2010,03,06,15,59,13.30
2010,03,06,16,00,13.30
2010,03,06,16,01,13.30
2010,03,06,16,02,13.30
2010,03,06,16,03,13.30
2010,03,06,16,04,13.30
2010,03,06,16,05,13.30
2010,03,06,16,06,13.30
2010,03,06,16,07,13.30
2010,03,06,16,08,13.30
2010,03,06,16,09,13.30
2010,03,06,16,10,13.30
2010,03,06,16,11,13.30
2010,03,06,16,12,13.30
2010,03,06,16,13,13.20
2010,03,06,16,14,13.20
2010,03,06,16,15,13.20
2010,03,06,16,16,13.10
2010,03,06,16,17,13.10
2010,03,06,16,18,13.10
2010,03,06,16,19,13.10
2010,03,06,16,20,13.10
2010,03,06,16,21,13.10
2010,03,06,16,22,13.10
2010,03,06,16,23,13.10
2010,03,06,16,24,13.10
2010,03,06,16,25,13.10
2010,03,06,16,26,13.10
2010,03,06,16,27,13.00
2010,03,06,16,28,13.00
2010,03,06,16,29,13.00
2010,03,06,16,30,12.90
2010,03,06,16,31,12.90
2010,03,06,16,32,12.90
2010,03,06,16,33,12.90
2010,03,06,16,34,12.90
2010,03,06,16,35,12.90
2010,03,06,16,36,12.90
2010,03,06,16,37,12.90
2010,03,06,16,38,13.00
2010,03,06,16,39,13.00
2010,03,06,16,40,13.10
2010,03,06,16,41,13.10
2010,03,06,16,42,13.20
2010,03,06,16,43,13.30
2010,03,06,16,44,13.30
2010,03,06,16,45,13.40
2010,03,06,16,46,13.40
2010,03,06,16,47,13.40
2010,03,06,16,48,13.40
2010,03,06,16,49,13.40
2010,03,06,16,50,13.40
2010,03,06,16,51,13.40
2010,03,06,16,52,13.40
2010,03,06,16,53,13.40
2010,03,06,16,54,13.30
2010,03,06,16,55,13.30
2010,03,06,16,56,13.10
2010,03,06,16,57,13.00
2010,03,06,16,58,12.90
2010,03,06,16,59,12.80
2010,03,06,17,00,12.70
2010,03,06,17,01,12.70
2010,03,06,17,02,12.70
2010,03,06,17,03,12.70
2010,03,06,17,04,12.70
2010,03,06,17,05,12.70
2010,03,06,17,06,12.70
2010,03,06,17,07,12.70
2010,03,06,17,08,12.70
2010,03,06,17,09,12.70
2010,03,06,17,10,12.70
2010,03,06,17,11,12.70
2010,03,06,17,12,12.70
2010,03,06,17,13,12.70
2010,03,06,17,14,12.60
2010,03,06,17,15,12.60
2010,03,06,17,16,12.60
2010,03,06,17,17,12.60
2010,03,06,17,18,12.60
2010,03,06,17,19,12.60
2010,03,06,17,20,12.60
2010,03,06,17,21,12.60
2010,03,06,17,22,12.60
2010,03,06,17,23,12.60
2010,03,06,17,24,12.60
2010,03,06,17,25,12.60
2010,03,06,17,26,12.50
2010,03,06,17,27,12.50
2010,03,06,17,28,12.40
2010,03,06,17,29,12.40
2010,03,06,17,30,12.30
2010,03,06,17,31,12.30
2010,03,06,17,32,12.20
2010,03,06,17,33,12.20
2010,03,06,17,34,12.10
2010,03,06,17,35,12.00
2010,03,06,17,36,12.00
2010,03,06,17,37,11.90
2010,03,06,17,38,11.80
2010,03,06,17,39,11.80
2010,03,06,17,40,11.80
2010,03,06,17,41,11.70
2010,03,06,17,42,11.70
2010,03,06,17,43,11.60
2010,03,06,17,44,11.50
2010,03,06,17,45,11.50